Total_Precipitation_Accumulation
0.00 0.00 0.00 0.01 0.00 0.06 0.39 0.73 1.42 1.65 2.19 3.36 2.92 2.22 2.60 1.26 0.90 1.15 0.55 0.18 0.07 0.01 0.01 0.01 0.00 0.00 0.00 0.00 0.00 0.00 0.02 0.09 0.18 0.24 0.14 0.15 0.24 0.13 0.17 0.29 0.37 0.49 0.44 0.44
0.00 0.00 0.00 0.00 0.00 0.01 0.11 0.37 1.39 1.63 2.00 1.93 2.71 2.03 2.03 1.94 1.01 0.77 0.76 0.28 0.11 0.04 0.01 0.00 0.00 0.00 0.01 0.00 0.00 0.00 0.07 0.18 0.21 0.12 0.15 0.16 0.14 0.13 0.21 0.38 0.48 0.25 0.32 0.41
0.00 0.00 0.00 0.00 0.00 0.06 0.13 0.14 0.88 1.94 1.85 1.90 1.68 2.24 1.74 1.91 1.93 1.00 0.92 0.51 0.32 0.06 0.06 0.01 0.00 0.00 0.02 0.01 0.00 0.00 0.06 0.20 0.19 0.31 0.27 0.69 0.73 0.79 0.89 0.59 0.32 0.16 0.22 0.25
0.00 0.00 0.00 0.00 0.00 0.03 0.16 0.16 0.41 1.18 1.44 1.47 1.36 1.43 1.61 1.30 1.65 1.94 1.27 0.43 0.22 0.11 0.09 0.07 0.01 0.01 0.01 0.01 0.00 0.00 0.02 0.20 0.17 0.28 0.39 0.69 0.71 0.70 0.53 0.41 0.57 0.36 0.14 0.15
0.00 0.00 0.00 0.00 0.00 0.02 0.04 0.07 0.25 0.66 0.98 0.94 0.80 0.76 0.72 1.13 1.22 1.72 1.34 0.40 0.28 0.22 0.12 0.11 0.02 0.03 0.04 0.00 0.00 0.00 0.00 0.16 0.20 0.25 0.74 0.46 0.27 0.49 0.51 0.48 1.14 0.61 0.33 0.16
0.00 0.00 0.00 0.00 0.00 0.01 0.02 0.06 0.09 0.33 1.00 0.60 0.25 0.35 0.37 0.76 0.84 1.06 0.91 0.63 0.37 0.14 0.16 0.17 0.11 0.07 0.05 0.01 0.00 0.00 0.00 0.04 0.13 0.20 0.23 0.38 0.54 0.73 1.26 1.33 1.23 0.54 0.29 0.18
0.00 0.00 0.00 0.00 0.02 0.04 0.01 0.02 0.16 0.24 0.52 0.44 0.12 0.16 0.31 0.17 0.69 0.77 0.67 0.58 0.40 0.26 0.25 0.19 0.15 0.16 0.13 0.03 0.00 0.00 0.00 0.01 0.04 0.11 0.08 0.17 0.31 0.59 1.04 1.38 0.70 0.69 0.64 0.63
0.00 0.00 0.00 0.00 0.00 0.01 0.01 0.01 0.02 0.05 0.12 0.23 0.20 0.36 0.14 0.06 0.15 0.26 0.27 0.24 0.60 0.39 0.38 0.42 0.30 0.31 0.38 0.18 0.02 0.06 0.02 0.02 0.01 0.08 0.07 0.13 0.22 0.22 0.39 0.64 0.83 0.86 0.83 0.83
0.00 0.00 0.00 0.00 0.00 0.00 0.02 0.01 0.03 0.04 0.07 0.13 0.31 0.48 0.16 0.14 0.22 0.08 0.15 0.21 0.40 0.66 0.81 0.62 0.37 0.48 0.89 0.58 0.28 0.07 0.08 0.07 0.06 0.04 0.07 0.17 0.20 0.16 0.16 0.48 0.65 0.54 0.69 0.90
0.00 0.00 0.00 0.00 0.00 0.00 0.00 0.06 0.07 0.06 0.08 0.08 0.27 0.78 0.44 0.16 0.13 0.16 0.15 0.28 0.27 0.75 1.67 1.91 1.47 0.78 0.87 1.36 1.17 0.75 0.24 0.15 0.22 0.09 0.13 0.25 0.16 0.16 0.24 0.36 0.48 0.58 0.74 1.91
0.00 0.01 0.00 0.00 0.00 0.00 0.00 0.02 0.05 0.04 0.03 0.03 0.14 0.29 0.27 0.26 0.13 0.08 0.12 0.29 0.35 0.72 1.48 2.79 2.81 2.33 1.40 1.71 1.15 1.79 0.99 0.77 0.71 0.63 0.56 0.62 0.33 0.16 0.17 0.24 0.37 0.53 0.66 0.85
0.03 0.05 0.01 0.00 0.00 0.00 0.00 0.00 0.01 0.02 0.01 0.02 0.03 0.20 0.26 0.38 0.19 0.10 0.27 0.35 0.77 1.07 1.02 1.66 2.40 2.55 1.97 1.77 1.33 1.46 2.10 1.50 1.33 1.32 1.47 0.99 0.97 0.78 0.48 0.34 0.32 0.46 0.58 0.65
0.11 0.09 0.03 0.00 0.00 0.00 0.00 0.00 0.00 0.00 0.02 0.06 0.05 0.06 0.09 0.23 0.21 0.05 0.08 0.51 0.80 0.47 0.77 0.94 1.39 2.00 2.31 2.05 1.71 1.78 2.21 3.10 1.89 1.95 1.92 1.60 1.25 1.11 1.06 0.90 0.90 0.62 0.52 0.67
0.26 0.11 0.03 0.01 0.01 0.01 0.03 0.02 0.00 0.00 0.00 0.00 0.02 0.02 0.04 0.03 0.03 0.14 0.25 0.35 0.44 0.78 0.82 1.10 1.09 1.33 2.01 2.17 1.90 2.04 2.39 2.58 2.90 2.44 2.36 1.83 1.37 1.20 1.17 1.34 1.74 1.85 1.35 1.17
0.18 0.08 0.01 0.00 0.01 0.01 0.03 0.12 0.15 0.03 0.00 0.01 0.04 0.03 0.05 0.20 0.07 0.12 0.34 0.39 0.46 0.43 0.53 0.76 1.01 1.18 1.75 2.34 2.19 2.32 2.14 2.20 2.02 1.87 2.15 2.50 2.51 1.91 1.96 2.00 2.53 2.74 2.01 1.70
0.09 0.07 0.04 0.02 0.01 0.00 0.01 0.01 0.01 0.06 0.03 0.01 0.01 0.05 0.32 0.73 0.91 0.31 0.13 0.14 0.45 0.85 1.10 1.42 2.05 2.15 2.44 2.49 3.11 2.81 2.75 2.90 2.86 2.37 2.00 2.10 2.72 2.61 2.02 1.85 1.74 1.95 1.85 2.03
0.16 0.20 0.18 0.05 0.02 0.03 0.06 0.01 0.00 0.02 0.03 0.04 0.05 0.04 0.20 0.64 1.02 0.47 0.31 0.49 0.87 1.68 1.69 1.89 2.28 2.39 2.79 3.03 3.07 2.59 2.20 3.18 3.53 3.60 2.49 1.91 2.01 1.61 1.40 1.39 1.58 1.57 1.82 1.99
0.13 0.39 0.41 0.29 0.20 0.38 0.16 0.06 0.04 0.04 0.05 0.04 0.07 0.14 0.46 0.59 0.32 0.29 0.57 1.59 2.83 3.00 2.88 3.55 3.22 3.45 3.24 3.06 3.41 3.25 2.76 2.65 3.06 3.00 2.90 2.15 1.88 1.94 1.57 1.27 1.13 1.19 1.48 1.70
0.08 0.34 0.48 0.46 0.50 0.35 0.16 0.09 0.05 0.05 0.09 0.13 0.20 0.34 0.47 1.14 0.93 1.25 1.43 1.40 1.42 1.44 1.80 2.10 1.55 1.84 2.80 3.66 3.72 4.43 4.11 4.41 3.74 2.71 3.66 3.13 1.65 1.39 1.40 1.34 1.45 1.45 1.46 1.41
0.20 0.32 0.67 0.57 0.92 0.75 0.39 0.28 0.21 0.19 0.31 0.19 0.23 0.50 0.67 0.67 0.94 0.91 0.69 0.82 0.69 0.66 1.34 0.96 0.60 0.60 0.86 1.65 2.22 3.24 4.61 4.26 3.76 3.11 2.63 3.50 3.53 2.41 1.86 2.18 2.45 2.57 2.65 2.36
0.42 0.59 0.62 0.53 0.85 0.76 0.37 0.26 0.31 0.57 0.48 0.24 0.26 0.70 1.11 1.84 1.48 0.93 0.61 0.44 0.33 0.48 0.50 0.51 0.39 0.57 0.64 0.89 1.29 1.76 2.45 3.21 3.66 3.00 3.13 2.85 2.84 3.28 2.99 3.15 3.26 3.12 3.23 3.28
0.83 1.04 1.12 0.72 1.29 1.31 0.46 0.56 0.74 0.59 0.24 0.81 0.97 1.38 1.25 1.10 1.07 0.71 0.38 0.27 0.16 0.18 0.18 0.19 0.19 0.39 0.51 0.64 0.95 1.37 1.67 2.67 4.12 4.88 4.08 4.48 3.74 3.46 3.38 3.06 3.51 3.89 3.59 3.48
1.12 1.14 1.30 0.90 1.29 1.08 0.74 0.86 0.65 0.46 0.54 0.50 0.74 1.16 1.66 1.36 0.75 0.42 0.29 0.16 0.13 0.09 0.05 0.07 0.11 0.25 0.39 0.40 0.72 0.85 1.33 1.94 2.28 2.87 3.50 4.47 5.19 4.06 3.43 3.37 2.97 2.89 3.18 2.73
1.06 1.22 1.13 0.85 0.89 1.04 0.80 0.98 0.90 0.90 0.88 0.99 0.45 0.62 0.54 0.67 0.64 0.33 0.19 0.20 0.15 0.12 0.10 0.05 0.07 0.16 0.28 0.39 0.51 0.88 0.97 1.15 1.70 2.19 2.13 2.34 2.93 2.81 2.60 2.31 2.40 2.75 3.44 3.77
1.44 1.29 1.04 0.96 0.99 1.19 1.00 1.43 1.17 1.06 0.88 1.03 1.86 1.50 0.79 0.54 0.36 0.26 0.17 0.20 0.20 0.22 0.18 0.16 0.23 0.37 0.43 0.47 0.62 0.88 0.83 0.94 1.08 1.20 1.19 1.28 1.63 2.03 2.17 2.46 2.51 2.46 2.90 3.58
1.45 1.63 1.47 1.17 1.07 1.70 1.45 1.41 1.37 1.41 1.43 1.46 1.95 1.48 1.22 1.04 0.98 0.79 0.62 0.56 0.49 0.62 0.68 0.70 0.78 1.05 1.33 1.25 0.87 0.75 0.56 0.48 0.67 0.80 0.83 0.86 1.04 1.27 1.65 2.25 2.60 3.17 3.49 3.55